Weather in Poperechnoye

Russia / Republic of Buryatia     52°23′04″N   110°42′43″E
temp.,
°C
wind,
m/s
gust,
m/s
humid.,
%
clouds,
%
prec.,
mm/h
press.,
hPa
HPBL,
m
14 april, wed
wed1423:00−1w41069100 0.0 1010724
02:00−2wnw5117894 0.1 1011742
05:00−3wnw6146712 0.0 1012782
08:00−2nw61044100 0.0 1013952
11:00+1nw7934100 0.0 10131745
14:00+3nw7828100 0.0 10122441
17:00+1nw6731100 0.0 10122114
20:00−3nw41063100 0.0 1015447
15 april, thu
thu1523:00−4wnw31066100 0.0 1015431
02:00−6w267527 0.0 1013180
05:00−8w11895 0.0 101412
08:00−4w36605 0.0 1012697
11:00+1wnw4628100 0.0 10092566
14:00+2nw5724100 0.0 10093007
17:00+2nw5631100 0.0 10102011
20:00−2nnw4960100 0.0 1013366
16 april, fri
fri1623:00−4nw377631 0.0 1016208
02:00−6nw238520 0.0 101851
05:00−8wnw22875 0.0 102141
08:00−3wnw36535 0.0 1021654
11:00+2w45305 0.0 10191639
14:00+5w562999 0.0 10161972
17:00+5wnw5737100 0.0 10151534
20:000w24605 0.0 101771
17 april, sat
sat1723:00−3w22725 0.0 101712
02:00−4w11805 0.0 101711
05:00−5wsw11875 0.0 101611
08:00+1sw236041 0.0 1014253
11:00+8sw473554 0.0 1009871
14:00+12wsw572848 0.0 10061821
17:00+13wnw462642 0.0 10052130
20:00+5nnw32555 0.0 100826
18 april, sun
sun1823:00+2w116290 0.0 100910
02:00+1nw226655 0.0 101022
05:00−1nw2278100 0.0 101227
08:00+3nw125396 0.0 1012302
11:00+8s113466 0.0 1010956
14:00+11s223288 0.0 10061286
17:00+12wsw1231100 0.0 10051043
20:00+7n224497 0.0 100614